This demonstration page uses our WeatherBlox Daily Observations layout. Learn more.

Hourly Observations for October 20, 2017

Temp ( °F °C ) Dew Point ( °F °C ) Humidity (%) Winds ( mph kmh ) Pressure ( in mb ) Visibility ( mi km ) Precip ( " mm )
12:54 am 00:54 Clear 62 16.7 48 8.9 60 60 S 14 22 29.96 1014 10 16.0934 0 0
1:54 am 01:54 Clear 61 16.1 49 9.4 65 65 S 14 22 29.95 1014 10 16.0934 0 0
2:54 am 02:54 Clear 59 15 49 9.4 69 69 S 13 20 29.94 1014 10 16.0934 0 0
3:54 am 03:54 Clear 57 13.9 50 10 78 78 S 10 17 29.93 1014 10 16.0934 0 0
4:54 am 04:54 Clear 57 13.9 51 10.6 81 81 S 9 15 29.93 1014 10 16.0934 0 0
5:54 am 05:54 Clear 56 13.3 51 10.6 84 84 S 10 17 29.92 1013 10 16.0934 0 0
6:54 am 06:54 Clear 57 13.9 52 11.1 83 83 S 14 22 29.92 1013 9 14.48406 0 0
7:54 am 07:54 Sunny 58 14.4 52 11.1 81 81 S 15 24 29.91 1013 8 12.87472 0 0
8:54 am 08:54 Sunny 61 16.1 53 11.7 75 75 S 15 24 29.9 1013 10 16.0934 0 0
9:54 am 09:54 Sunny 65 18.3 54 12.2 68 68 S 21 33 29.89 1012 10 16.0934 0 0
10:54 am 10:54 Sunny 67 19.4 55 12.8 66 66 S 21 33 29.86 1011 10 16.0934 0 0
11:54 am 11:54 Sunny 71 21.7 56 13.3 59 59 S 20 31 29.82 1010 10 16.0934 0 0
12:54 pm 12:54 Sunny 76 24.4 57 13.9 52 52 S 28 44 29.78 1009 10 16.0934 0 0
1:54 pm 13:54 Mostly Sunny 76 24.4 58 14.4 54 54 S 29 46 29.74 1007 10 16.0934 0 0
2:54 pm 14:54 Sunny 76 24.4 59 15 56 56 S 24 39 29.7 1006 10 16.0934 0 0
3:54 pm 15:54 Mostly Cloudy 76 24.4 58 14.4 54 54 S 32 52 29.68 1005 10 16.0934 0 0
4:54 pm 16:54 Mostly Sunny 75 23.9 59 15 58 58 S 24 39 29.68 1005 10 16.0934 0 0
5:54 pm 17:54 Partly Cloudy 75 23.9 59 15 58 58 S 25 41 29.66 1004 10 16.0934 0 0
6:54 pm 18:54 Clear 73 22.8 58 14.4 59 59 SSE 22 35 29.65 1004 10 16.0934 0 0
7:54 pm 19:54 Mostly Cloudy 72 22.2 57 13.9 59 59 S 23 37 29.67 1005 10 16.0934 0 0
8:54 pm 20:54 Mostly Clear 70 21.1 57 13.9 64 64 S 26 43 29.67 1005 10 16.0934 0 0
9:54 pm 21:54 Clear 68 20 57 13.9 68 68 S 25 41 29.67 1005 10 16.0934 0 0
10:54 pm 22:54 Clear 67 19.4 57 13.9 71 71 S 17 28 29.66 1004 10 16.0934 0 0
11:54 pm 23:54 Partly Cloudy 68 20 59 15 73 73 S 22 35 29.64 1004 10 16.0934 0 0

Powered by AerisWeather